When you browse on this site, cookies collect data to enhance your experience and personalize the content and advertising you see.
Visit our Privacy Policy to learn more. By continuing to use the site, you agree to this use of cookies and data.
  • In Österreich
  • Länderverzeichnis
  • Für 7 Tage
  • Wassertemperatur
  • Satellitenkarten
  • Wetterkarte
  • News
  • Widgets
  • user-avatar
    Anmelden

    Stündliche Wetter Quito

    Heute, 12 Dezember, Mittwoch

    Zeit Temperatur Niederschläge Wind Luftdruck Luftfeuchtigkeit
    00:00 +16°C° 0 mm 2 m/S 622 mmHg 88%
    01:00 +16°C° 0 mm 2 m/S 622 mmHg 91%
    02:00 +15°C° 0 mm 2 m/S 622 mmHg 92%
    03:00 +15°C° 0 mm 1 m/S 622 mmHg 92%
    04:00 +15°C° 0 mm 1 m/S 622 mmHg 93%
    05:00 +16°C° 0 mm 1 m/S 623 mmHg 89%
    06:00 +18°C° 0 mm 1 m/S 623 mmHg 85%
    07:00 +20°C° 0 mm 1 m/S 624 mmHg 81%
    08:00 +22°C° 0.2 mm 1 m/S 625 mmHg 73%
    09:00 +23°C° 0.2 mm 2 m/S 625 mmHg 65%
    10:00 +25°C° 0.2 mm 2 m/S 625 mmHg 57%
    11:00 +26°C° 0.2 mm 2 m/S 625 mmHg 51%
    12:00 +28°C° 0.2 mm 2 m/S 625 mmHg 45%
    13:00 +28°C° 0 mm 2 m/S 625 mmHg 40%
    14:00 +28°C° 0 mm 2 m/S 625 mmHg 41%
    15:00 +28°C° 0 mm 1 m/S 624 mmHg 43%
    16:00 +28°C° 0 mm 1 m/S 624 mmHg 44%
    17:00 +25°C° 0 mm 1 m/S 623 mmHg 49%
    18:00 +23°C° 0 mm 1 m/S 622 mmHg 55%
    19:00 +20°C° 0 mm 1 m/S 622 mmHg 60%
    20:00 +19°C° 0 mm 2 m/S 622 mmHg 63%
    21:00 +18°C° 0 mm 2 m/S 622 mmHg 65%
    22:00 +17°C° 0 mm 2 m/S 622 mmHg 68%
    23:00 +17°C° 0 mm 2 m/S 622 mmHg 73%

    Morgen, 13 Dezember, Donnerstag

    Zeit Temperatur Niederschläge Wind Luftdruck Luftfeuchtigkeit
    00:00 +16°C° 0 mm 2 m/S 622 mmHg 78%
    01:00 +16°C° 0 mm 2 m/S 622 mmHg 84%
    02:00 +16°C° 0 mm 1 m/S 622 mmHg 86%
    03:00 +15°C° 0 mm 1 m/S 622 mmHg 89%
    04:00 +15°C° 0 mm 1 m/S 622 mmHg 92%
    05:00 +16°C° 0 mm 1 m/S 623 mmHg 89%
    06:00 +18°C° 0 mm 1 m/S 624 mmHg 86%
    07:00 +19°C° 0 mm 1 m/S 624 mmHg 83%
    08:00 +22°C° 0.1 mm 1 m/S 625 mmHg 74%
    09:00 +24°C° 0.1 mm 1 m/S 626 mmHg 66%
    10:00 +27°C° 0.1 mm 1 m/S 627 mmHg 57%
    11:00 +28°C° 0.1 mm 1 m/S 626 mmHg 53%
    12:00 +29°C° 0.1 mm 1 m/S 626 mmHg 49%
    13:00 +30°C° 0.1 mm 1 m/S 626 mmHg 44%
    14:00 +29°C° 0.1 mm 1 m/S 625 mmHg 50%
    15:00 +28°C° 0.1 mm 1 m/S 624 mmHg 55%
    16:00 +27°C° 0.1 mm 1 m/S 623 mmHg 60%
    17:00 +25°C° 0.1 mm 1 m/S 623 mmHg 65%
    18:00 +23°C° 0.1 mm 1 m/S 623 mmHg 70%
    19:00 +21°C° 0.1 mm 1 m/S 623 mmHg 75%
    20:00 +20°C° 0.3 mm 1 m/S 623 mmHg 80%
    21:00 +20°C° 0.3 mm 1 m/S 623 mmHg 84%
    22:00 +19°C° 0.3 mm 1 m/S 624 mmHg 88%
    23:00 +19°C° 0.2 mm 1 m/S 623 mmHg 89%

    übermorgen, 14 Dezember, Freitag

    Zeit Temperatur Niederschläge Wind Luftdruck Luftfeuchtigkeit
    00:00 +18°C° 0.2 mm 1 m/S 623 mmHg 91%
    01:00 +18°C° 0.2 mm 1 m/S 623 mmHg 92%
    02:00 +16°C° 0.2 mm 1 m/S 623 mmHg 93%
    03:00 +16°C° 0.2 mm 1 m/S 623 mmHg 94%
    04:00 +16°C° 0.2 mm 1 m/S 622 mmHg 95%
    05:00 +18°C° 0 mm 1 m/S 623 mmHg 93%
    06:00 +18°C° 0 mm 1 m/S 624 mmHg 91%
    07:00 +19°C° 0 mm 1 m/S 624 mmHg 89%
    08:00 +21°C° 0.4 mm 1 m/S 625 mmHg 82%
    09:00 +23°C° 0.4 mm 1 m/S 625 mmHg 75%
    10:00 +25°C° 0.4 mm 1 m/S 626 mmHg 69%
    11:00 +26°C° 0.3 mm 2 m/S 626 mmHg 62%
    12:00 +27°C° 0.3 mm 2 m/S 625 mmHg 55%
    13:00 +28°C° 0.3 mm 2 m/S 625 mmHg 49%
    14:00 +27°C° 0.1 mm 2 m/S 624 mmHg 53%
    15:00 +26°C° 0.1 mm 2 m/S 624 mmHg 58%
    16:00 +26°C° 0.1 mm 1 m/S 623 mmHg 63%
    17:00 +24°C° 0.5 mm 1 m/S 623 mmHg 70%
    18:00 +22°C° 0.5 mm 1 m/S 623 mmHg 76%
    19:00 +20°C° 0.5 mm 1 m/S 623 mmHg 83%
    20:00 +19°C° 0.1 mm 1 m/S 623 mmHg 85%
    21:00 +19°C° 0.1 mm 1 m/S 623 mmHg 87%
    22:00 +17°C° 0.1 mm 2 m/S 624 mmHg 89%
    23:00 +18°C° 0 mm 1 m/S 623 mmHg 89%

    15 Dezember, Samstag

    Zeit Temperatur Niederschläge Wind Luftdruck Luftfeuchtigkeit
    00:00 +18°C° 0 mm 1 m/S 623 mmHg 90%
    01:00 +16°C° 0 mm 1 m/S 622 mmHg 91%
    02:00 +16°C° 0 mm 1 m/S 622 mmHg 92%
    03:00 +16°C° 0 mm 1 m/S 622 mmHg 92%
    04:00 +16°C° 0 mm 1 m/S 622 mmHg 93%
    05:00 +16°C° 0 mm 1 m/S 623 mmHg 91%
    06:00 +18°C° 0 mm 1 m/S 623 mmHg 90%
    07:00 +19°C° 0 mm 1 m/S 624 mmHg 88%
    08:00 +21°C° 0.1 mm 1 m/S 625 mmHg 80%
    09:00 +23°C° 0.1 mm 1 m/S 625 mmHg 73%
    10:00 +25°C° 0.1 mm 1 m/S 626 mmHg 65%
    11:00 +26°C° 0.6 mm 1 m/S 625 mmHg 65%
    12:00 +26°C° 0.6 mm 1 m/S 625 mmHg 64%
    13:00 +27°C° 0.6 mm 1 m/S 625 mmHg 63%
    14:00 +26°C° 0.9 mm 1 m/S 624 mmHg 67%
    15:00 +25°C° 0.9 mm 1 m/S 623 mmHg 71%
    16:00 +24°C° 0.9 mm 2 m/S 623 mmHg 75%
    17:00 +21°C° 0.5 mm 2 m/S 623 mmHg 80%
    18:00 +20°C° 0.5 mm 2 m/S 623 mmHg 85%
    19:00 +18°C° 0.5 mm 2 m/S 623 mmHg 90%
    20:00 +18°C° 0 mm 2 m/S 623 mmHg 91%
    21:00 +17°C° 0 mm 2 m/S 623 mmHg 92%
    22:00 +17°C° 0 mm 2 m/S 623 mmHg 93%
    23:00 +17°C° 0 mm 2 m/S 623 mmHg 94%

    16 Dezember, Sonntag

    Zeit Temperatur Niederschläge Wind Luftdruck Luftfeuchtigkeit
    00:00 +17°C° 0 mm 2 m/S 623 mmHg 95%
    01:00 +16°C° 0 mm 2 m/S 622 mmHg 95%
    02:00 +16°C° 0 mm 2 m/S 622 mmHg 96%
    03:00 +16°C° 0 mm 1 m/S 622 mmHg 97%
    04:00 +15°C° 0 mm 1 m/S 622 mmHg 97%
    05:00 +16°C° 0 mm 1 m/S 623 mmHg 95%
    06:00 +18°C° 0 mm 1 m/S 623 mmHg 93%
    07:00 +19°C° 0 mm 1 m/S 624 mmHg 90%
    08:00 +22°C° 0 mm 1 m/S 625 mmHg 80%
    09:00 +25°C° 0 mm 1 m/S 626 mmHg 69%
    10:00 +27°C° 0 mm 1 m/S 626 mmHg 59%
    11:00 +28°C° 0 mm 1 m/S 626 mmHg 55%
    12:00 +29°C° 0 mm 1 m/S 625 mmHg 51%
    13:00 +29°C° 0 mm 1 m/S 625 mmHg 47%
    14:00 +28°C° 0.3 mm 1 m/S 624 mmHg 54%
    15:00 +26°C° 0.3 mm 1 m/S 623 mmHg 61%
    16:00 +25°C° 0.3 mm 2 m/S 622 mmHg 67%
    17:00 +23°C° 0.5 mm 2 m/S 622 mmHg 74%
    18:00 +20°C° 0.5 mm 2 m/S 622 mmHg 80%
    19:00 +18°C° 0.5 mm 2 m/S 622 mmHg 87%
    20:00 +18°C° 0.1 mm 2 m/S 622 mmHg 89%
    21:00 +17°C° 0.1 mm 2 m/S 623 mmHg 90%
    22:00 +18°C° 0.1 mm 1 m/S 623 mmHg 92%
    23:00 +18°C° 0 mm 1 m/S 622 mmHg 92%

    17 Dezember, Montag

    Zeit Temperatur Niederschläge Wind Luftdruck Luftfeuchtigkeit
    00:00 +18°C° 0 mm 1 m/S 622 mmHg 93%
    01:00 +16°C° 0 mm 2 m/S 622 mmHg 93%
    02:00 +16°C° 0 mm 1 m/S 622 mmHg 94%
    03:00 +16°C° 0 mm 1 m/S 622 mmHg 94%
    04:00 +16°C° 0 mm 1 m/S 622 mmHg 95%
    05:00 +16°C° 0 mm 1 m/S 622 mmHg 93%
    06:00 +18°C° 0 mm 1 m/S 623 mmHg 91%
    07:00 +19°C° 0 mm 1 m/S 624 mmHg 88%
    08:00 +21°C° 0.4 mm 1 m/S 624 mmHg 81%
    09:00 +23°C° 0.4 mm 1 m/S 625 mmHg 73%
    10:00 +25°C° 0.4 mm 1 m/S 625 mmHg 66%
    11:00 +25°C° 1.3 mm 1 m/S 624 mmHg 68%
    12:00 +25°C° 1.3 mm 1 m/S 624 mmHg 70%
    13:00 +25°C° 1.3 mm 1 m/S 623 mmHg 72%
    14:00 +24°C° 1.7 mm 1 m/S 623 mmHg 75%
    15:00 +24°C° 1.7 mm 1 m/S 622 mmHg 78%
    16:00 +23°C° 1.7 mm 1 m/S 622 mmHg 81%
    17:00 +22°C° 0.6 mm 1 m/S 622 mmHg 84%
    18:00 +20°C° 0.6 mm 1 m/S 622 mmHg 87%
    19:00 +18°C° 0.6 mm 2 m/S 622 mmHg 91%
    20:00 +18°C° 1.3 mm 2 m/S 622 mmHg 92%
    21:00 +17°C° 1.3 mm 2 m/S 622 mmHg 93%
    22:00 +17°C° 1.3 mm 2 m/S 623 mmHg 94%
    23:00 +17°C° 0.3 mm 2 m/S 622 mmHg 94%
    Mehr zeigen